Lapse_Rate
2.2 1.7 2.2 1.6 1.4 1.5 1.1 1.7 2.3 2.1 1.7 1.4 1.7 2.7 2.7 2.9 2.4 1.8 3.1 4.1 4.9 5.7 5.1 4.9 3.9 4.0 3.9 3.9 3.5 3.3 3.2 2.9 2.5 3.6 2.9 2.4 2.2 1.9 1.9 2.3 3.0 3.5 4.2
1.6 1.7 1.5 1.8 1.8 1.4 1.6 2.2 3.0 3.7 2.8 3.0 2.8 3.6 3.7 3.3 2.7 2.8 2.7 4.1 4.6 5.0 5.3 4.5 3.9 3.6 4.2 3.5 3.7 3.3 2.5 2.9 2.2 4.4 3.8 4.5 2.2 0.9 1.1 1.7 2.4 2.3 2.9
0.7 1.2 1.7 1.9 1.4 1.3 1.5 3.3 3.9 4.0 4.0 3.7 4.1 4.5 4.9 4.3 3.5 3.3 3.8 4.7 5.2 4.6 4.8 4.2 3.2 3.8 4.0 3.6 3.3 3.3 3.1 3.5 3.1 4.7 6.7 5.8 4.5 2.9 2.7 2.7 2.6 3.2 3.4
0.9 1.3 2.0 1.7 2.1 2.2 2.4 2.3 2.9 3.7 4.1 4.5 5.9 6.1 5.9 5.1 3.9 3.6 3.6 3.8 4.5 4.6 4.4 4.0 3.5 3.2 3.6 3.5 3.2 3.0 3.0 2.8 4.2 4.4 4.3 4.9 5.5 6.9 6.8 4.7 4.0 3.6 4.0
0.8 1.0 1.6 2.2 2.2 1.9 1.1 1.5 2.4 2.6 3.3 4.4 5.5 5.4 5.7 5.4 4.8 4.1 4.2 4.1 4.7 4.9 4.2 4.0 4.2 3.6 3.5 3.8 3.5 3.5 3.4 3.4 4.7 4.9 5.5 5.2 5.3 5.5 6.0 6.9 6.6 5.7 6.1
1.2 1.2 1.7 1.8 1.4 1.0 1.1 1.1 1.5 2.4 2.9 3.7 5.1 4.6 4.9 5.5 5.1 4.9 4.8 4.3 4.5 3.7 2.9 3.3 2.6 2.2 2.7 2.7 2.3 3.1 3.5 4.0 4.9 5.6 5.7 6.3 6.4 6.4 6.3 7.0 7.1 7.2 7.5
0.8 1.0 1.2 1.1 0.9 0.9 1.1 1.5 2.1 2.2 2.2 3.8 4.7 3.5 3.9 4.9 5.2 4.7 4.5 4.7 3.7 2.8 3.0 2.6 2.3 2.1 2.7 2.6 2.8 3.1 2.5 2.6 3.6 3.3 3.7 3.8 4.7 3.9 4.8 5.6 6.3 6.1 6.5
0.8 0.8 1.0 0.6 0.4 0.4 0.8 0.9 1.8 1.8 2.2 2.9 3.5 3.7 3.5 3.7 3.6 2.9 3.0 2.3 1.8 1.9 2.4 1.8 0.8 0.8 2.1 2.3 1.7 1.3 2.6 2.3 2.2 2.0 2.5 2.9 2.3 2.0 2.3 2.9 4.0 5.7 6.2
0.6 0.6 0.6 0.0 -0.1 -0.4 0.3 0.6 1.1 2.5 2.6 2.4 3.0 3.5 3.2 3.2 3.1 2.9 2.2 2.0 2.1 2.0 2.1 1.8 1.6 -0.4 0.4 2.1 1.7 2.2 2.2 2.9 2.8 3.0 2.8 1.9 1.9 1.6 2.0 2.8 2.8 4.5 6.3
0.7 0.6 0.4 0.2 -0.3 -0.4 -0.5 -0.1 0.7 1.7 2.5 2.1 2.4 2.2 3.0 2.0 1.9 2.3 2.2 2.1 1.6 1.7 1.9 1.6 1.6 1.5 1.2 2.0 1.8 1.6 1.1 0.8 1.5 1.4 1.5 2.0 1.6 2.1 2.0 2.6 3.2 3.7 4.9
0.7 0.5 -0.0 -0.3 -0.7 -1.1 -1.3 -0.9 -0.2 0.8 1.8 2.5 2.6 2.2 2.3 2.1 1.5 1.2 1.2 1.3 1.6 1.7 2.3 1.8 1.2 1.0 0.9 0.7 1.0 1.4 -0.1 0.1 0.7 0.9 1.2 1.8 1.7 1.8 1.6 1.8 2.5 2.3 3.2
1.1 0.6 -0.2 -0.4 -1.0 -1.4 -1.3 -1.1 -0.5 0.0 0.1 0.6 2.2 2.5 0.9 1.4 0.7 0.3 0.3 0.1 -0.1 0.1 0.3 0.8 1.0 1.2 0.5 0.9 0.3 0.9 0.6 1.0 1.3 0.5 0.6 1.5 2.3 1.8 2.3 1.9 1.6 1.6 2.6
0.3 -0.0 -0.8 -1.3 -1.3 -1.4 -1.6 -1.7 -1.5 -1.3 -1.1 -0.8 0.3 1.6 2.1 2.1 1.8 1.5 1.2 1.2 0.0 -0.1 1.0 1.2 0.9 0.9 1.0 1.2 1.5 1.3 0.9 0.5 0.6 0.6 0.9 1.9 2.1 1.6 1.0 1.0 1.3 1.9 3.2
0.2 -1.1 -2.3 -1.8 -1.7 -1.8 -1.9 -1.9 -1.8 -1.6 -1.1 -1.2 -1.4 -1.2 -0.9 -0.8 -0.5 -0.2 -0.3 -0.4 -0.5 -0.7 -0.7 -0.5 -0.4 0.2 1.0 1.3 1.2 1.0 0.5 0.5 1.1 1.7 1.8 2.1 2.1 1.7 1.6 2.1 1.9 2.5 1.9
1.1 0.0 -1.1 -2.2 -2.1 -2.1 -2.5 -2.5 -2.3 -1.9 -1.7 -1.2 -0.9 -0.8 -1.0 -1.3 -1.6 -1.6 -1.4 -1.1 -1.0 -0.7 -0.1 0.5 0.9 1.1 2.0 2.9 1.9 2.0 1.6 1.1 0.7 0.8 1.1 1.3 1.7 3.1 3.6 3.9 2.8 3.5 4.3
1.3 1.1 -0.1 -1.3 -1.6 -2.5 -2.3 -2.3 -2.4 -2.4 -2.0 -1.6 -0.9 -0.7 -0.7 -0.6 -0.5 -0.5 -0.5 -0.7 -0.7 -0.7 -0.7 -0.5 0.4 1.2 2.7 4.6 5.1 2.6 1.2 0.8 0.4 -0.1 0.1 0.5 2.2 2.4 4.1 5.0 6.0 7.8 7.4
1.3 0.8 0.1 -1.0 -0.8 -1.7 -1.8 -2.2 -2.5 -2.5 -2.6 -2.0 -1.8 -1.5 -1.1 -0.8 -0.6 -0.5 -0.4 -0.2 -0.2 -0.5 -0.2 0.0 0.3 0.5 0.6 4.2 4.7 4.2 1.1 0.7 0.5 0.6 0.7 1.2 2.9 2.8 2.6 5.8 8.0 8.2 8.5
1.2 0.9 0.2 -0.2 -1.3 -1.7 -2.4 -2.1 -2.4 -2.8 -2.6 -2.3 -1.9 -1.7 -1.6 -1.4 -1.3 -1.2 -0.9 -0.6 -0.6 -0.2 0.0 0.2 0.3 0.6 1.7 4.1 4.8 4.6 1.8 1.5 1.5 1.7 1.7 1.4 2.0 4.1 6.8 8.0 7.7 7.9 7.9
1.0 0.4 0.1 0.1 -0.6 -1.9 -2.3 -2.4 -2.7 -2.7 -2.5 -2.2 -2.0 -1.6 -1.5 -1.2 -1.0 -1.0 -1.3 -1.6 -1.4 -1.1 -0.6 -0.2 0.2 0.4 0.9 4.1 4.5 2.9 1.2 1.3 1.4 2.5 3.2 4.6 4.9 6.1 8.6 7.6 7.4 7.5 7.6
0.6 0.6 0.4 -0.3 -1.4 -1.9 -3.0 -2.4 -2.3 -2.5 -2.3 -2.0 -1.9 -1.8 -1.8 -1.5 -1.7 -1.7 -1.2 -0.6 -0.8 -0.4 -0.7 0.1 -0.2 2.2 0.4 2.6 3.7 3.2 1.7 1.4 1.6 1.9 3.1 5.3 7.9 9.0 8.6 7.7 7.6 7.1 7.4
0.8 0.4 -0.0 -0.6 -0.9 -2.2 -2.9 -1.9 -2.4 -2.0 -1.6 -1.8 -1.9 -1.8 -1.7 -1.2 -1.0 -1.1 -1.4 -1.4 -0.9 -0.5 -0.7 0.1 -0.4 -0.1 0.5 0.2 3.3 4.2 3.4 3.7 3.0 2.7 2.7 3.6 6.2 8.6 8.5 8.6 8.0 7.8 7.9
0.3 0.5 0.0 -0.6 -1.2 -2.9 -2.3 -1.7 -1.9 -1.0 -2.1 -1.4 -1.5 -1.6 -1.4 -0.6 -0.3 -1.0 -0.7 -0.7 -0.8 -0.3 -0.2 -0.2 0.1 0.2 0.2 2.2 3.0 4.7 5.4 8.1 6.9 5.8 4.9 4.6 6.5 8.2 7.0 6.9 8.8 8.6 8.4
0.5 0.1 -0.3 -0.1 -1.3 -2.9 -2.1 -1.1 -0.6 -2.0 -1.5 -1.6 -1.8 -1.6 -1.3 -0.8 -0.5 -0.5 -0.2 -0.3 -0.5 -0.7 0.1 0.2 0.6 1.3 1.9 1.4 4.0 5.3 7.9 8.3 8.1 8.2 8.6 8.9 7.1 6.2 5.0 5.8 6.9 6.9 5.0
0.0 -0.1 -0.2 -0.7 -0.8 -2.1 -1.8 -0.6 -1.4 -1.3 -0.6 -0.6 -1.2 -1.0 -1.1 -1.2 -0.8 -0.3 0.4 0.1 -0.4 -0.3 0.5 1.2 1.8 1.8 2.6 2.9 4.3 7.2 7.8 8.5 8.1 8.3 7.3 6.0 5.9 5.7 5.2 4.7 4.7 4.7 4.8
-0.0 -0.7 -0.5 -0.3 0.1 -0.5 -1.0 -0.6 -1.4 -0.9 -0.0 -0.1 -0.3 -0.7 -0.7 0.5 -0.6 -0.5 -0.1 0.4 0.2 0.3 0.6 1.6 2.1 2.1 2.8 3.8 8.1 8.0 7.9 7.8 8.1 7.7 3.6 3.2 3.1 3.2 4.1 3.9 4.3 4.4 4.7
2.5 -0.4 -0.6 -0.3 0.3 -0.2 -0.2 -0.3 -0.7 -0.4 0.1 0.2 -0.3 -0.3 -0.3 -0.5 -0.1 0.2 0.3 2.7 3.1 4.0 4.2 4.5 4.0 3.9 6.0 6.9 8.6 7.5 8.4 8.6 7.3 4.1 3.2 3.1 3.4 4.4 5.1 5.5 5.0 4.8 5.1
Wind_Speed
4 6 5 6 6 3 6 7 9 11 8 8 8 5 6 8 7 5 10 9 8 9 4 6 5 5 6 9 7 3 4 4 3 1 3 3 5 6 6 6 7 8 11
6 6 7 6 6 6 7 8 9 11 8 7 7 6 7 7 7 6 5 8 7 8 5 5 4 5 6 5 4 4 3 2 3 3 1 3 4 3 5 4 6 9 6
8 7 7 7 7 6 7 9 10 11 9 10 7 7 7 5 4 4 4 4 5 6 5 5 5 4 3 3 1 3 4 3 2 4 3 2 4 2 3 4 4 7 6
6 7 7 7 7 6 6 7 9 12 11 12 8 9 8 7 3 4 4 5 6 5 5 5 4 5 3 2 1 1 1 1 2 1 3 4 2 6 8 2 4 5 7
7 8 7 6 7 6 6 7 8 9 10 10 9 8 8 6 6 5 5 4 3 5 2 3 6 6 4 4 7 5 4 2 2 2 2 3 4 6 7 13 7 5 7
8 8 7 6 6 6 6 6 7 8 9 9 9 9 10 8 5 4 3 2 3 5 9 8 5 5 3 4 4 3 6 4 3 3 4 5 4 4 5 11 11 12 11
8 7 8 6 5 6 6 6 6 7 8 9 9 10 10 8 7 7 4 5 4 4 6 6 5 5 3 3 5 3 4 3 2 4 2 3 4 5 3 5 9 8 7
8 8 8 7 6 6 5 6 6 6 7 8 9 8 8 5 5 6 5 4 4 5 5 5 4 5 3 3 5 4 2 3 1 3 3 2 3 4 4 3 6 4 3
8 9 8 7 7 6 6 5 6 6 6 6 6 7 7 7 6 7 6 5 6 5 6 6 4 7 6 4 4 3 3 3 3 3 3 3 3 3 3 3 3 4 3
7 7 7 7 6 5 4 5 5 4 4 5 4 5 7 6 6 6 7 7 6 5 4 4 3 4 5 4 4 3 4 5 4 2 4 2 3 3 2 3 3 3 3
8 7 7 6 6 4 4 5 4 4 4 3 4 4 4 5 5 5 5 5 5 5 4 3 5 6 5 4 4 5 7 6 5 5 4 6 6 4 4 4 3 2 2
8 7 7 6 5 6 5 5 3 2 2 3 3 3 5 5 5 5 5 4 5 5 5 5 5 5 6 6 7 6 5 4 5 5 6 5 5 5 4 3 4 3 3
9 8 7 7 7 6 6 6 6 5 4 1 1 2 3 3 4 4 4 5 5 5 5 5 5 5 5 5 4 4 2 3 4 5 5 5 4 4 3 4 3 3 4
9 7 7 8 7 7 7 6 6 5 4 2 2 2 2 3 3 3 3 4 4 4 5 5 5 5 4 3 3 3 4 4 4 3 3 3 4 5 5 4 4 5 4
9 7 8 8 8 7 7 6 6 6 5 4 3 3 2 2 3 3 3 2 3 3 3 3 3 3 1 2 3 2 2 2 3 3 3 4 8 10 9 6 4 5 4
9 9 8 8 9 9 8 7 7 7 6 6 6 4 4 3 2 1 1 2 2 2 2 2 2 1 2 3 2 4 2 1 2 4 5 5 8 8 14 13 13 11 9
9 9 9 9 10 10 10 11 9 6 7 6 6 6 5 4 4 3 3 2 1 0 0 1 1 1 2 3 2 3 1 2 4 4 4 4 4 8 6 11 14 13 16
8 8 7 7 8 6 8 6 7 7 7 7 7 6 6 6 6 5 5 3 2 2 2 1 1 1 2 3 3 5 3 3 4 3 4 4 5 9 11 10 10 9 11
7 7 6 6 5 8 8 8 7 7 7 7 7 6 6 6 4 4 4 4 4 3 2 2 1 1 1 3 4 4 3 4 5 4 5 6 8 14 17 11 10 11 11
6 7 7 4 5 6 7 9 9 9 10 9 9 7 7 6 6 6 5 2 2 3 2 1 1 1 2 5 5 5 2 3 3 3 4 10 11 16 18 12 10 10 10
8 6 5 7 8 5 8 9 8 12 12 8 7 6 6 6 6 4 3 3 3 1 0 0 0 1 1 3 7 7 3 3 4 4 5 4 16 18 19 19 10 11 14
9 7 7 7 6 7 8 9 11 11 7 7 6 6 6 5 4 5 4 3 3 2 1 1 2 2 2 4 4 7 6 8 4 5 6 7 18 20 20 15 18 20 16
9 6 7 7 6 7 10 10 11 8 8 8 7 7 7 5 5 5 5 3 3 3 3 2 2 2 2 2 4 7 8 9 6 4 10 18 17 18 12 15 18 16 6
10 7 7 8 8 7 10 14 7 8 9 10 9 8 7 6 5 4 4 4 4 3 3 3 3 3 2 3 3 3 3 8 6 9 5 10 11 12 11 9 8 5 5
8 6 8 8 10 7 10 10 8 9 9 9 8 7 6 7 5 5 4 4 4 5 3 3 3 3 3 3 5 4 3 4 6 7 3 3 4 5 7 6 6 6 6
11 7 8 8 10 7 9 10 11 13 11 10 7 7 6 5 5 5 3 8 8 9 10 7 5 3 5 5 6 7 8 9 11 3 3 4 4 5 7 8 8 7 9
Wind_Direction
284 293 287 291 297 291 329 330 326 322 320 321 317 314 311 306 302 280 269 255 262 268 227 236 228 232 234 231 198 172 194 218 217 92 303 264 243 238 236 237 246 248 245
306 295 307 305 308 303 312 313 321 319 315 307 296 283 287 290 284 277 279 267 263 256 242 220 226 237 233 219 211 183 174 195 173 166 117 322 325 288 250 237 246 252 255
284 297 303 300 301 296 298 320 313 305 312 300 289 286 285 271 280 298 294 273 268 256 231 204 194 212 241 251 239 234 154 203 229 219 225 231 246 322 266 249 234 245 248
268 276 284 298 319 307 310 299 309 316 316 313 301 289 290 285 267 281 279 293 291 269 219 199 180 180 164 158 84 26 234 198 213 312 252 275 247 279 292 264 266 246 240
252 270 280 288 301 306 310 314 316 317 317 317 318 314 292 265 273 279 283 302 333 11 200 163 145 139 138 125 77 38 12 347 294 240 259 223 241 250 267 285 287 260 248
256 261 275 282 293 312 321 317 311 316 325 324 331 337 330 339 321 291 296 14 67 53 41 48 61 56 81 100 83 89 50 20 331 328 280 256 257 255 274 280 288 282 273
265 269 279 284 279 305 324 317 326 324 332 340 345 352 345 348 348 343 344 106 101 59 61 47 48 58 44 73 98 86 73 44 358 27 336 341 5 357 332 306 297 277 278
258 259 257 250 253 265 296 318 322 322 339 353 347 351 10 359 13 10 6 45 72 84 82 83 84 72 22 352 79 79 97 79 64 31 26 336 21 18 4 333 324 294 272
253 251 251 235 242 248 265 284 323 333 344 348 9 1 7 26 19 19 32 45 49 59 47 64 39 50 48 6 57 68 51 45 47 38 359 21 6 20 356 323 358 313 307
260 257 250 245 241 246 257 287 287 313 332 347 12 32 20 24 34 29 30 31 49 57 64 66 74 90 64 23 53 54 25 38 20 4 3 357 359 342 343 330 342 4 322
271 259 248 237 230 245 253 269 276 292 324 354 352 17 46 45 34 38 35 36 39 54 74 40 50 68 68 41 40 37 35 30 6 359 358 4 3 5 356 344 322 346 315
281 268 247 231 227 236 242 231 247 246 304 290 358 48 47 50 56 42 34 35 50 47 52 69 70 77 60 45 41 39 27 24 13 353 12 3 2 3 337 342 7 0 323
285 267 245 231 229 231 232 226 222 217 206 176 41 66 78 73 66 58 45 41 46 44 49 66 79 93 95 87 83 83 61 35 20 5 353 344 340 334 326 344 348 318 316
277 272 245 228 227 225 226 228 231 225 219 179 151 131 93 78 62 45 45 49 43 45 36 38 46 50 89 90 85 67 44 32 21 344 335 333 332 325 326 342 332 326 317
296 274 255 233 224 223 223 225 225 211 196 192 192 213 207 160 144 132 119 89 75 64 47 55 44 38 145 194 156 115 72 35 6 350 340 350 342 347 341 332 314 303 298
285 284 258 226 226 212 212 206 212 212 188 194 204 197 196 197 187 139 87 75 52 53 72 81 74 31 333 320 292 123 120 25 3 347 342 341 337 340 332 323 315 310 310
284 287 273 242 224 211 200 206 200 189 195 198 197 194 194 201 208 198 177 171 166 129 46 22 12 312 288 313 3 19 74 357 339 331 325 324 323 321 287 317 316 312 308
264 276 271 264 241 215 192 181 177 188 192 198 203 199 193 194 190 188 194 196 187 194 203 236 289 298 308 331 10 29 22 323 301 299 302 303 314 330 328 322 314 305 302
243 254 269 267 249 208 187 172 173 183 189 204 207 203 195 199 209 215 204 195 183 190 201 222 206 179 333 1 7 25 356 330 316 315 315 321 325 323 326 319 310 304 302
247 270 285 272 245 238 175 171 187 186 201 202 206 198 195 199 195 190 201 235 218 205 204 182 105 60 14 346 352 350 309 324 310 305 305 327 325 324 322 321 317 310 306
277 272 264 253 253 195 168 194 186 204 207 191 192 191 190 192 197 200 196 182 191 223 277 154 16 51 339 335 350 345 355 323 329 325 322 312 323 325 324 324 320 310 317
272 258 258 254 246 193 178 199 205 211 176 184 187 186 187 190 184 192 204 193 180 190 234 237 317 336 332 336 337 340 332 335 327 313 309 308 315 326 329 329 322 323 331
253 244 233 256 240 201 194 204 225 173 180 177 185 183 181 193 192 189 199 190 188 192 217 213 245 275 274 271 303 323 329 329 320 309 311 322 329 325 327 321 332 334 320
247 237 232 241 248 209 206 221 186 175 178 190 186 184 183 186 189 191 190 183 193 200 219 220 229 246 260 260 259 301 307 319 319 314 331 327 324 321 320 325 319 312 312
257 226 228 235 243 213 213 213 189 171 189 192 187 181 185 191 180 192 188 191 206 190 195 217 214 214 236 246 291 325 320 313 319 336 343 315 322 331 337 332 324 325 320
270 241 238 237 246 226 226 208 192 181 183 186 183 187 183 182 179 182 198 219 212 222 217 230 223 239 253 302 311 314 324 330 325 6 327 321 322 326 331 330 325 325 321